Flag for U.S.A. Weather past 2 weeks in Metlakatla, Alaska, U.S.A.

Now
52 °F

Passing clouds.


Feels Like: 51 °F
Forecast: 51 / 56 °F
Wind: 5 mph from Southeast

Location: Metlakatla - Metlakatla Seaplane Base

Current Time: Sep 22, 2014 at 12:51:44 AM

Latest Report: Sep 22, 2014 at 12:36 AM


Visibility: 10 mi

Pressure: 29.80 "Hg

Humidity: 88%

Dew point: 48 °F

Location of MetlakatlaLocation

Historic Weather in Metlakatla — Graph

°F

Metlakatla temperature yesterday

Maximum temperature yesterday: 66 °F (at 8:36 AM)
Minimum temperature yesterday: 54 °F (at 10:36 PM)
Average temperature yesterday: 59 °F

Past Weeks' High & Low Weather Summary

 TemperatureHumidityPressure
High66 °F (Sep 21, 8:36 AM)100% (Sep 15, 9:36 AM)30.36 "Hg (Sep 15, 9:36 AM)
Low48 °F (Sep 12, 2:16 AM)34% (Sep 10, 9:36 AM)29.39 "Hg (Sep 18, 2:56 PM)
Average56 °F83%29.96 "Hg
* Reported Sep 6 11:16 PM — Sep 21 11:56 PM, Metlakatla, Weather by CustomWeather, © 2014

Note: Actual official high and low records may vary slightly from our data, if they occured in-between our weather recording intervals... More about our weather records

Advertising

Metlakatla weather history for previous 24 hours

 ConditionsComfort  
Time TempWeatherWind HumidityBarometerVisibility
11:56 PM
Sep 21
54 °FPassing clouds.No wind88%29.78 "Hg10 mi
11:36 PM54 °FPassing clouds.5 mph94%29.77 "Hg10 mi
11:16 PM54 °FOvercast.6 mph94%29.77 "Hg10 mi
10:56 PM54 °FOvercast.5 mph94%29.76 "Hg10 mi
10:36 PM54 °FPartly cloudy.5 mph94%29.76 "Hg9 mi
10:16 PM55 °FPartly cloudy.6 mph88%29.75 "Hg10 mi
9:56 PM55 °FMostly cloudy.9 mph94%29.73 "Hg8 mi
9:16 PM55 °FPartly cloudy.9 mph94%29.72 "Hg9 mi
8:56 PM55 °FPartly cloudy.12 mph94%29.70 "Hg10 mi
8:36 PM55 °FPartly cloudy.10 mph94%29.70 "Hg8 mi
8:16 PM55 °FMostly cloudy.9 mph94%29.69 "Hg7 mi
7:56 PM57 °FOvercast.12 mph88%29.69 "Hg10 mi
7:36 PM55 °FMostly cloudy.10 mph94%29.67 "Hg10 mi
7:16 PM55 °FOvercast.8 mph88%29.67 "Hg10 mi
6:56 PM55 °FOvercast.9 mph94%29.66 "Hg10 mi
6:36 PM55 °FOvercast.9 mph94%29.66 "Hg8 mi
6:16 PM55 °FMore clouds than sun.9 mph94%29.65 "Hg9 mi
5:56 PM57 °FMore clouds than sun.8 mph88%29.64 "Hg8 mi
5:36 PM57 °FBroken clouds.8 mph88%29.64 "Hg5 mi
5:16 PM57 °FCloudy.10 mph88%29.63 "Hg5 mi
4:56 PM57 °FBroken clouds.12 mph88%29.61 "Hg5 mi
4:16 PM57 °FCloudy.10 mph88%29.60 "Hg5 mi
3:56 PM57 °FMostly cloudy.12 mph88%29.60 "Hg2 mi
3:36 PM57 °FBroken clouds.15 mph88%29.58 "Hg4 mi
3:16 PM59 °FMostly cloudy.14 mph77%29.58 "Hg10 mi
2:56 PM61 °FOvercast.14 mph72%29.57 "Hg10 mi
2:36 PM63 °FMostly cloudy.13 mph64%29.57 "Hg10 mi
2:16 PM64 °FMostly cloudy.7 mph60%29.56 "Hg10 mi
1:56 PM63 °FMostly cloudy.13 mph64%29.56 "Hg10 mi
1:36 PM61 °FOvercast.16 mph68%29.57 "Hg10 mi
1:16 PM63 °FMore clouds than sun.13 mph64%29.57 "Hg10 mi
12:56 PM63 °FOvercast.13 mph64%29.57 "Hg10 mi
12:36 PM63 °FMore clouds than sun.13 mph64%29.57 "Hg10 mi
11:56 AM63 °FPassing clouds.17 mph64%29.59 "Hg10 mi
11:36 AM61 °FSunny.13 mph72%29.59 "Hg10 mi
11:16 AM61 °FSunny.17 mph72%29.60 "Hg10 mi
10:56 AM63 °FSunny.14 mph73%29.60 "Hg10 mi
10:36 AM64 °FSunny.10 mph73%29.59 "Hg10 mi
9:56 AM64 °FSunny.12 mph73%29.59 "Hg10 mi
9:36 AM66 °FSunny.9 mph68%29.57 "Hg10 mi
9:16 AM66 °FSunny.10 mph68%29.57 "Hg10 mi
8:56 AM66 °FSunny.9 mph68%29.57 "Hg10 mi
8:36 AM66 °FSunny.13 mph68%29.58 "Hg7 mi
8:16 AM61 °FSunny.5 mph83%29.58 "Hg9 mi
7:56 AM57 °FSunny.No wind94%29.58 "Hg9 mi
7:36 AM55 °FSunny.7 mph94%29.58 "Hg7 mi
6:56 AM55 °FClear.No wind94%29.60 "Hg10 mi
6:36 AM55 °FPassing clouds.No wind94%29.62 "Hg10 mi
6:16 AM55 °FOvercast.3 mph94%29.63 "Hg10 mi
5:56 AM55 °FOvercast.No wind94%29.64 "Hg10 mi
5:36 AM55 °FOvercast.No wind94%29.65 "Hg5 mi
4:56 AM55 °FOvercast.No wind94%29.67 "Hg10 mi
4:36 AM55 °FOvercast.No wind94%29.68 "Hg10 mi
4:16 AM55 °FPassing clouds.No wind94%29.69 "Hg10 mi
3:56 AM55 °FPassing clouds.No wind94%29.70 "Hg10 mi
3:36 AM57 °FMostly cloudy.3 mph88%29.71 "Hg10 mi
3:16 AM57 °FMostly cloudy.6 mph88%29.71 "Hg10 mi
2:56 AM59 °FMostly cloudy.8 mph82%29.72 "Hg9 mi
2:36 AM63 °FOvercast.8 mph77%29.73 "Hg10 mi
2:16 AM64 °FMostly cloudy.5 mph73%29.74 "Hg10 mi
1:56 AM64 °FMostly cloudy.3 mph73%29.75 "Hg10 mi
1:36 AM64 °FOvercast.5 mph73%29.75 "Hg10 mi
1:16 AM64 °FMostly cloudy.5 mph73%29.77 "Hg10 mi
12:56 AM64 °FMostly cloudy.8 mph73%29.77 "Hg10 mi
12:36 AM64 °FOvercast.8 mph73%29.78 "Hg10 mi
12:16 AM64 °FOvercast.8 mph78%29.79 "Hg10 mi
Weather by CustomWeather, © 2014

See weather overviewHow to use our weather pages